Weather History for Kimball, NE

Change the Weather History Date:

Friday, March 1, 2013

  Actual Average (KSNY) Record (KSNY)
Temperature  
Mean Temperature 30 °F 35 °F  
Max Temperature 43 °F 49 °F 75 °F (2008)
Min Temperature 19 °F 22 °F -12 °F (1980)
Degree Days  
Heating Degree Days 35 30  
Month to date heating degree days 30  
Since 1 July heating degree days 4612  
Cooling Degree Days 0 0  
Month to date cooling degree days 0  
Year to date cooling degree days 0  
Moisture  
Dew Point 22 °F    
Average Humidity 65    
Maximum Humidity 79    
Minimum Humidity 44    
Precipitation  
Precipitation 0.00 in 0.02 in 0.15 in (1980)
Month to date precipitation 0.02  
Year to date precipitation 0.54  
Sea Level Pressure  
Sea Level Pressure 30.23 in    
Wind  
Wind Speed 11 mph (NW)    
Max Wind Speed 20 mph    
Max Gust Speed 31 mph    
Visibility 10 miles    
Events      
T = Trace of Precipitation, MM = Missing Value Source: NWS Daily Summary

Daily Weather History Graph

Daily Weather History Graph

Search for Another Location

Airport:

Trip Planner

Search our weather history database for the weather conditions in past years. The results will help you decide how hot, cold, wet, or windy it might be!

Date:

Astronomy

Mar. 01, 2013 Rise Set
Actual Time 7:28 AM CST 6:45 PM CST
Civil Twilight 7:00 AM CST 7:13 PM CST
Nautical Twilight 6:29 AM CST 7:45 PM CST
Astronomical Twilight 5:57 AM CST 8:17 PM CST
Moon 11:25 PM CST (3/1) 9:13 AM CST (3/1)
Length of Visible Light 12h 12m
Length of Day
11h 17m
Waning Gibbous, 83% of the Moon is Illuminated
Mar 1
Waning Gibbous
Mar 4
Last Quarter
Mar 11
New
Mar 19
First Quarter
Mar 27
Full

Hourly Weather History & Observations

Time (CST) Temp. Windchill Dew Point Humidity Pressure Visibility Wind Dir Wind Speed Gust Speed Precip Events Conditions
12:15 AM 24.8 °F 14.0 °F 19.0 °F 79% 30.17 in 10.0 mi NW 11.5 mph - N/A   Clear
12:35 AM 24.6 °F 14.4 °F 18.5 °F 78% 30.19 in 10.0 mi NW 10.4 mph - N/A   Scattered Clouds
1:15 AM 25.5 °F 16.2 °F 19.2 °F 77% 30.21 in 10.0 mi NW 9.2 mph - N/A   Overcast
1:35 AM 25.0 °F 18.1 °F 18.5 °F 76% 30.21 in 10.0 mi NNW 5.8 mph - N/A   Mostly Cloudy
1:55 AM 25.3 °F 16.7 °F 19.0 °F 77% 30.22 in 10.0 mi NW 8.1 mph - N/A   Overcast
2:35 AM 26.4 °F 18.0 °F 19.4 °F 75% 30.21 in 10.0 mi NW 8.1 mph - N/A   Overcast
2:55 AM 25.3 °F 16.7 °F 18.1 °F 74% 30.21 in 10.0 mi NW 8.1 mph - N/A   Mostly Cloudy
3:35 AM 24.6 °F 13.2 °F 17.6 °F 75% 30.20 in 10.0 mi WNW 12.7 mph - N/A   Mostly Cloudy
3:55 AM 23.0 °F 12.4 °F 16.7 °F 77% 30.19 in 10.0 mi WNW 10.4 mph - N/A   Scattered Clouds
4:15 AM 21.6 °F 9.9 °F 16.0 °F 79% 30.19 in 10.0 mi WNW 11.5 mph - N/A   Clear
4:35 AM 22.1 °F 10.6 °F 15.4 °F 76% 30.20 in 10.0 mi West 11.5 mph - N/A   Clear
4:55 AM 20.8 °F 7.9 °F 14.9 °F 78% 30.20 in 10.0 mi West 13.8 mph - N/A   Clear
5:15 AM 20.3 °F 7.2 °F 14.7 °F 79% 30.20 in 10.0 mi West 13.8 mph - N/A   Clear
5:35 AM 21.0 °F 8.6 °F 14.7 °F 77% 30.21 in 10.0 mi WNW 12.7 mph - N/A   Clear
6:15 AM 20.5 °F 8.6 °F 14.4 °F 77% 30.22 in 10.0 mi West 11.5 mph - N/A   Clear
6:35 AM 19.6 °F 6.8 °F 13.5 °F 77% 30.21 in 10.0 mi West 12.7 mph - N/A   Clear
6:55 AM 20.3 °F 7.7 °F 13.8 °F 76% 30.21 in 10.0 mi West 12.7 mph - N/A   Clear
7:15 AM 19.6 °F 9.7 °F 13.6 °F 78% 30.20 in 10.0 mi WNW 8.1 mph - N/A   Clear
7:35 AM 20.1 °F 7.5 °F 14.4 °F 78% 30.21 in 10.0 mi WNW 12.7 mph - N/A   Clear
7:55 AM 22.8 °F 10.9 °F 15.8 °F 74% 30.22 in 10.0 mi WNW 12.7 mph - N/A   Clear
8:15 AM 23.7 °F 12.1 °F 16.7 °F 75% 30.23 in 10.0 mi WNW 12.7 mph - N/A   Clear
8:35 AM 25.5 °F 14.3 °F 17.8 °F 72% 30.24 in 10.0 mi WNW 12.7 mph - N/A   Clear
9:15 AM 30.7 °F 20.4 °F 19.8 °F 64% 30.25 in 10.0 mi WNW 13.8 mph - N/A   Clear
9:35 AM 31.8 °F 21.0 °F 21.0 °F 64% 30.25 in 10.0 mi WNW 16.1 mph - N/A   Scattered Clouds
9:55 AM 32.9 °F 22.8 °F 20.8 °F 61% 30.25 in 10.0 mi WNW 15.0 mph - N/A   Scattered Clouds
10:15 AM 33.6 °F 24.1 °F 21.9 °F 62% 30.25 in 10.0 mi WNW 13.8 mph - N/A   Mostly Cloudy
10:35 AM 34.3 °F 25.0 °F 22.5 °F 62% 30.25 in 10.0 mi WNW 13.8 mph - N/A   Overcast
10:55 AM 36.0 °F 26.3 °F 21.6 °F 56% 30.25 in 10.0 mi NW 16.1 mph 19.6 mph N/A   Overcast
11:15 AM 36.7 °F 27.6 °F 21.9 °F 55% 30.25 in 10.0 mi NW 15.0 mph - N/A   Overcast
11:35 AM 37.4 °F 28.2 °F 20.3 °F 50% 30.25 in 10.0 mi NW 16.1 mph - N/A   Overcast
12:15 PM 38.7 °F 29.5 °F 21.2 °F 50% 30.25 in 10.0 mi NW 17.3 mph 23.0 mph N/A   Overcast
12:35 PM 39.9 °F 32.5 °F 21.7 °F 48% 30.25 in 10.0 mi NW 12.7 mph 19.6 mph N/A   Scattered Clouds
12:55 PM 39.4 °F 31.1 °F 21.0 °F 48% 30.24 in 10.0 mi NW 15.0 mph 20.7 mph N/A   Mostly Cloudy
1:15 PM 40.6 °F 33.0 °F 21.9 °F 47% 30.24 in 10.0 mi NNW 13.8 mph - N/A   Mostly Cloudy
1:35 PM 41.0 °F 32.2 °F 22.3 °F 47% 30.23 in 10.0 mi NNW 18.4 mph 25.3 mph N/A   Scattered Clouds
1:55 PM 40.8 °F 32.3 °F 21.9 °F 47% 30.22 in 10.0 mi NNW 17.3 mph - N/A   Clear
2:15 PM 41.2 °F 33.4 °F 22.3 °F 47% 30.21 in 10.0 mi NNW 15.0 mph 26.5 mph N/A   Clear
2:35 PM 41.5 °F 32.6 °F 22.3 °F 46% 30.21 in 10.0 mi NNW 19.6 mph 27.6 mph N/A   Scattered Clouds
2:55 PM 41.7 °F 33.4 °F 21.6 °F 45% 30.21 in 10.0 mi NNW 17.3 mph 31.1 mph N/A   Overcast
3:15 PM 40.8 °F 32.3 °F 21.6 °F 46% 30.20 in 10.0 mi NNW 17.3 mph 23.0 mph N/A   Overcast
3:35 PM 40.8 °F 32.9 °F 21.9 °F 47% 30.20 in 10.0 mi NNW 15.0 mph - N/A   Overcast
3:55 PM 41.5 °F 33.5 °F 21.2 °F 44% 30.21 in 10.0 mi NNW 16.1 mph - N/A   Overcast
4:15 PM 41.9 °F 34.6 °F 22.1 °F 45% 30.21 in 10.0 mi North 13.8 mph 21.9 mph N/A   Mostly Cloudy
4:35 PM 40.3 °F 33.0 °F 21.6 °F 47% 30.22 in 10.0 mi NNW 12.7 mph 19.6 mph N/A   Overcast
5:15 PM 40.1 °F 34.1 °F 23.0 °F 51% 30.23 in 10.0 mi NNW 9.2 mph - N/A   Overcast
5:35 PM 39.4 °F 34.5 °F 24.3 °F 55% 30.23 in 10.0 mi NW 6.9 mph - N/A   Overcast
5:55 PM 39.2 °F 35.9 °F 25.0 °F 57% 30.23 in 10.0 mi NW 4.6 mph - N/A   Overcast
6:15 PM 37.8 °F 33.3 °F 26.8 °F 65% 30.23 in 10.0 mi NW 5.8 mph - N/A   Overcast
6:35 PM 37.4 °F 29.8 °F 26.2 °F 64% 30.24 in 10.0 mi WNW 11.5 mph - N/A   Overcast
6:55 PM 36.7 °F 29.4 °F 27.7 °F 70% 30.24 in 10.0 mi WNW 10.4 mph - N/A   Overcast
7:15 PM 36.5 °F 31.8 °F 27.1 °F 69% 30.24 in 10.0 mi NW 5.8 mph - N/A   Overcast
7:35 PM 36.1 °F 29.9 °F 26.6 °F 68% 30.24 in 10.0 mi West 8.1 mph - N/A   Overcast
7:55 PM 37.4 °F 32.1 °F 25.9 °F 63% 30.24 in 10.0 mi WNW 6.9 mph - N/A   Overcast
8:15 PM 36.1 °F 32.3 °F 27.0 °F 69% 30.25 in 10.0 mi WNW 4.6 mph - N/A   Overcast
8:35 PM 36.5 °F 31.0 °F 26.4 °F 67% 30.25 in 10.0 mi WNW 6.9 mph - N/A   Overcast
8:55 PM 36.1 °F 29.3 °F 27.5 °F 71% 30.25 in 10.0 mi West 9.2 mph - N/A   Overcast
9:15 PM 36.5 °F 30.3 °F 27.9 °F 71% 30.24 in 10.0 mi West 8.1 mph - N/A   Overcast
9:35 PM 36.5 °F 30.3 °F 27.9 °F 71% 30.24 in 10.0 mi West 8.1 mph - N/A   Overcast
9:55 PM 36.7 °F 30.5 °F 27.5 °F 69% 30.24 in 10.0 mi West 8.1 mph - N/A   Overcast
10:15 PM 36.7 °F 29.9 °F 27.5 °F 69% 30.25 in 10.0 mi West 9.2 mph - N/A   Overcast
10:35 PM 36.1 °F 31.4 °F 28.0 °F 72% 30.24 in 10.0 mi West 5.8 mph - N/A   Overcast
10:55 PM 36.0 °F 29.6 °F 28.8 °F 75% 30.24 in 10.0 mi West 8.1 mph - N/A   Overcast
11:15 PM 37.4 °F 30.8 °F 29.3 °F 73% 30.24 in 10.0 mi West 9.2 mph - N/A   Overcast
11:35 PM 38.5 °F 30.7 °F 30.9 °F 74% 30.23 in 10.0 mi WNW 12.7 mph - N/A   Overcast
11:55 PM 38.5 °F 30.3 °F 31.8 °F 77% 30.23 in 10.0 mi WNW 13.8 mph - N/A   Overcast